GW3707 Weather Reports


time (UTC)temp
C
wind
direction
speed
KPH
gust
KPH
rain 1hr
cm
rain 24hr
cm
rain mn
cm
humidity
%
barometer
mb
20260506165516 13 34 6.4 14.5 0.00 0.03 0.03 87 1015.0
20260506164537 13 40 3.2 14.5 0.00 0.03 0.03 87 1015.5
20260506163517 12 20 4.8 14.5 0.00 0.03 0.03 87 1015.8
20260506162516 12 12 4.8 16.1 0.00 0.03 0.03 87 1016.0
20260506161537 12 37 6.4 12.9 0.00 0.03 0.03 88 1015.6
20260506160537 12 39 9.7 22.5 0.00 0.03 0.03 88 1015.2
20260506155517 12 40 12.9 25.7 0.00 0.03 0.03 89 1014.5
20260506154516 12 39 9.7 19.3 0.03 0.03 0.03 90 1014.7
20260506153536 11 40 12.9 17.7 0.03 0.03 0.03 90 1014.9
20260506152517 11 42 8.0 16.1 0.03 0.03 0.03 90 1014.9
20260506151516 11 40 4.8 17.7 0.03 0.03 0.03 90 1015.8
20260506150516 11 19 3.2 16.1 0.03 0.03 0.03 90 1016.4
20260506145516 11 19 6.4 17.7 0.03 0.03 0.03 89 1015.6
20260506144516 11 347 8.0 20.9 0.00 0.00 0.00 88 1016.3
20260506143516 12 344 6.4 24.1 0.00 0.00 0.00 86 1016.2
20260506142536 12 298 12.9 24.1 0.00 0.00 0.00 85 1017.1
20260506141516 12 297 9.7 24.1 0.00 0.00 0.00 84 1016.1
20260506140517 12 313 6.4 19.3 0.00 0.00 0.00 82 1015.1
20260506135516 12 331 8.0 22.5 0.00 0.00 0.00 81 1014.9
20260506134536 13 1 8.0 20.9 0.00 0.00 0.00 80 1014.8
20260506133516 13 36 8.0 17.7 0.00 0.00 0.00 80 1015.0
20260506132516 13 309 6.4 19.3 0.00 0.00 0.00 81 1014.8
20260506131516 13 33 11.3 24.1 0.00 0.00 0.00 81 1014.3
20260506130516 13 319 6.4 17.7 0.00 0.00 0.00 81 1013.9
20260506125536 13 32 11.3 25.7 0.00 0.00 0.00 81 1013.8
20260506124536 13 8 8.0 20.9 0.00 0.00 0.00 81 1013.9
20260506123516 13 311 8.0 17.7 0.00 0.00 0.00 82 1013.8
20260506122516 13 336 8.0 20.9 0.00 0.00 0.00 83 1013.5
20260506121536 13 32 11.3 25.7 0.00 0.00 0.00 83 1013.4
20260506120516 13 317 9.7 19.3 0.00 0.00 0.00 83 1013.3
20260506115516 13 297 8.0 16.1 0.00 0.00 0.00 83 1013.3
20260506114516 13 332 4.8 24.1 0.00 0.00 0.00 84 1013.3
20260506113516 13 300 9.7 22.5 0.00 0.00 0.00 83 1013.2
20260506112516 14 301 8.0 19.3 0.00 0.00 0.00 83 1013.0
20260506111556 14 298 8.0 17.7 0.00 0.00 0.00 83 1012.8
20260506110516 14 304 9.7 22.5 0.00 0.00 0.00 82 1012.5
20260506105516 14 303 8.0 17.7 0.00 0.00 0.00 82 1012.3
20260506104516 15 309 6.4 17.7 0.00 0.00 0.00 82 1012.2
20260506103516 15 300 8.0 17.7 0.00 0.00 0.00 82 1012.1
20260506102516 15 292 4.8 11.3 0.00 0.00 0.00 82 1011.9
20260506101516 15 301 6.4 14.5 0.00 0.00 0.00 82 1011.8
20260506100516 15 304 6.4 16.1 0.00 0.00 0.00 82 1011.7
20260506095516 16 0 4.8 14.5 0.00 0.00 0.00 82 1011.6
20260506094516 16 359 3.2 9.7 0.00 0.00 0.00 82 1011.3
20260506093516 16 309 4.8 16.1 0.00 0.00 0.00 81 1011.3
20260506092516 16 349 4.8 16.1 0.00 0.00 0.00 81 1011.3
20260506091516 16 311 4.8 12.9 0.00 0.00 0.00 81 1011.3
20260506090516 16 303 6.4 17.7 0.00 0.00 0.00 81 1011.2
20260506085516 16 309 6.4 16.1 0.00 0.00 0.00 81 1011.3
20260506084516 16 38 4.8 11.3 0.00 0.00 0.00 81 1011.1
20260506083516 16 53 3.2 11.3 0.00 0.00 0.00 82 1011.1
20260506082536 16 34 4.8 14.5 0.00 0.00 0.00 82 1011.0
20260506081516 17 19 3.2 14.5 0.00 0.00 0.00 82 1011.0
20260506080516 17 12 4.8 14.5 0.00 0.00 0.00 81 1010.9
20260506073515 17 40 6.4 11.3 0.00 0.00 0.00 81 1010.7
20260506072516 17 41 6.4 12.9 0.00 0.00 0.00 81 1010.7
20260506071515 17 42 6.4 17.7 0.00 0.00 0.00 80 1010.7
20260506070516 17 36 8.0 16.1 0.00 0.00 0.00 80 1010.7
20260506062515 18 38 3.2 9.7 0.00 0.00 0.00 79 1010.5
20260506061536 18 17 3.2 12.9 0.00 0.00 0.00 79 1010.5
20260506060515 18 325 4.8 12.9 0.00 0.00 0.00 79 1010.6
20260506050518 20 39 4.8 12.9 0.00 0.00 0.00 77 1010.3
20260506044518 20 12 4.8 17.7 0.00 0.00 0.00 75 1010.3
20260506043518 21 302 4.8 16.1 0.00 0.00 0.00 75 1010.4
20260506042518 21 334 6.4 17.7 0.00 0.00 0.00 74 1010.2
20260506041518 21 334 8.0 20.9 0.00 0.00 0.00 74 1010.2
20260506040538 22 350 6.4 17.7 0.00 0.00 0.00 74 1010.1
20260506035518 22 32 6.4 17.7 0.00 0.00 0.00 73 1010.0
20260506034558 22 30 6.4 16.1 0.00 0.00 0.00 73 1009.6
20260506033518 22 41 6.4 12.9 0.00 0.00 0.00 73 1009.2
20260506032518 23 32 6.4 17.7 0.00 0.00 0.00 72 1009.0
20260506031518 23 42 3.2 12.9 0.00 0.00 0.00 72 1008.9
20260506030518 23 46 6.4 14.5 0.00 0.00 0.00 71 1008.6
20260506025518 23 38 8.0 17.7 0.00 0.00 0.00 73 1009.0
20260506024518 23 38 12.9 20.9 0.00 0.00 0.00 73 1008.4
20260506023518 23 335 4.8 14.5 0.00 0.00 0.00 73 1008.1
20260506022518 23 12 6.4 16.1 0.00 0.00 0.00 72 1008.0
20260506021518 24 299 6.4 17.7 0.00 0.00 0.00 71 1007.8
20260506020538 24 315 3.2 14.5 0.00 0.00 0.00 70 1007.5
20260506015517 25 302 6.4 14.5 0.00 0.00 0.00 70 1007.2
20260506014518 25 337 3.2 14.5 0.00 0.00 0.00 70 1006.9
20260506013538 25 40 6.4 16.1 0.00 0.00 0.00 69 1006.6
20260506012538 25 307 4.8 14.5 0.00 0.00 0.00 69 1006.6
20260506011518 26 303 4.8 14.5 0.00 0.00 0.00 68 1006.7
20260506010517 27 304 4.8 12.9 0.00 0.00 0.00 70 1006.4
20260506005538 27 60 0.0 12.9 0.00 0.00 0.00 78 1006.1
20260506004518 28 137 3.2 14.5 0.00 0.00 0.00 77 1005.9
20260506003518 28 125 1.6 16.1 0.00 0.00 0.00 76 1005.8
20260506002518 29 142 6.4 20.9 0.00 0.00 0.00 73 1005.8
20260506001538 30 140 4.8 16.1 0.00 0.00 0.00 71 1005.8
20260506000518 30 138 4.8 19.3 0.00 0.00 0.00 71 1005.7
20260505235517 30 137 4.8 16.1 0.00 0.00 0.00 71 1005.6
20260505234517 30 136 6.4 16.1 0.00 0.00 0.00 73 1005.6
20260505233518 30 139 6.4 19.3 0.00 0.00 0.00 71 1005.5
20260505232517 31 140 8.0 20.9 0.00 0.00 0.00 70 1005.4
20260505231517 31 130 4.8 16.1 0.00 0.00 0.00 69 1005.3
20260505230517 31 128 6.4 17.7 0.00 0.00 0.00 69 1005.3
20260505225538 32 124 6.4 16.1 0.00 0.00 0.00 66 1005.3
20260505224518 33 140 1.6 11.3 0.00 0.00 0.00 62 1005.2
20260505223517 33 160 0.0 8.0 0.00 0.00 0.00 57 1005.2
20260505222517 34 186 0.0 12.9 0.00 0.00 0.00 55 1005.0
20260505221517 35 135 1.6 9.7 0.00 0.00 0.00 54 1005.1
20260505220517 35 127 0.0 6.4 0.00 0.00 0.00 55 1005.0
20260505215517 35 151 0.0 8.0 0.00 0.00 0.00 56 1005.2
20260505214518 35 127 0.0 4.8 0.00 0.00 0.00 56 1005.3
20260505213517 35 132 0.0 9.7 0.00 0.00 0.00 56 1005.3
20260505212518 35 132 1.6 6.4 0.00 0.00 0.00 55 1005.3
20260505211517 35 113 0.0 9.7 0.00 0.00 0.00 55 1005.6
20260505210516 35 124 0.0 1.6 0.00 0.00 0.00 56 1005.7
20260505205517 34 110 0.0 6.4 0.00 0.00 0.00 59 1005.9
20260505204538 34 248 3.2 12.9 0.00 0.00 0.00 56 1005.8
20260505203537 34 192 1.6 11.3 0.00 0.00 0.00 56 1006.0
20260505202537 34 131 0.0 12.9 0.00 0.00 0.00 59 1006.2
20260505201518 34 120 0.0 4.8 0.00 0.00 0.00 59 1006.3
20260505200517 34 240 1.6 6.4 0.00 0.00 0.00 59 1006.3
20260505195517 33 272 0.0 11.3 0.00 0.00 0.00 60 1006.3
20260505194517 33 210 0.0 8.0 0.00 0.00 0.00 61 1006.4
20260505193537 33 238 1.6 12.9 0.00 0.00 0.00 60 1006.4
20260505192517 33 236 3.2 14.5 0.00 0.00 0.00 61 1006.6
20260505191517 33 239 1.6 9.7 0.00 0.00 0.00 60 1006.6
20260505190517 33 229 1.6 8.0 0.00 0.00 0.00 62 1006.7
20260505185517 32 293 1.6 12.9 0.00 0.00 0.00 64 1006.8
20260505184517 32 268 1.6 9.7 0.00 0.00 0.00 64 1006.9
20260505183517 32 260 1.6 9.7 0.00 0.00 0.00 66 1007.0
20260505182517 31 241 4.8 12.9 0.00 0.00 0.00 65 1007.0
20260505181517 31 265 1.6 12.9 0.00 0.00 0.00 67 1007.1
20260505180557 31 223 1.6 11.3 0.00 0.00 0.00 66 1007.1
20260505175517 31 261 3.2 11.3 0.00 0.00 0.00 69 1007.3
20260505174517 30 341 3.2 12.9 0.00 0.00 0.00 70 1007.2
20260505173517 29 49 1.6 12.9 0.00 0.00 0.00 71 1007.2
20260505172517 29 3 1.6 16.1 0.00 0.00 0.00 72 1007.2
20260505171517 28 135 3.2 17.7 0.00 0.00 0.00 71 1007.2
20260505170517 28 3 3.2 20.9 0.00 0.00 0.00 71 1007.3